Year,Month,Day,Hour,Minute,Value (Times are PST for temperature in C)
2009,06,03,00,00,16.20
2009,06,03,00,01,16.20
2009,06,03,00,02,16.20
2009,06,03,00,03,16.20
2009,06,03,00,04,16.20
2009,06,03,00,05,16.20
2009,06,03,00,06,16.20
2009,06,03,00,07,16.10
2009,06,03,00,08,16.10
2009,06,03,00,09,16.10
2009,06,03,00,10,16.10
2009,06,03,00,11,16.10
2009,06,03,00,12,16.10
2009,06,03,00,13,16.10
2009,06,03,00,14,16.10
2009,06,03,00,15,16.10
2009,06,03,00,16,16.10
2009,06,03,00,17,16.10
2009,06,03,00,18,16.10
2009,06,03,00,19,16.10
2009,06,03,00,20,16.10
2009,06,03,00,21,16.10
2009,06,03,00,22,16.10
2009,06,03,00,23,16.10
2009,06,03,00,24,16.10
2009,06,03,00,25,16.10
2009,06,03,00,26,16.10
2009,06,03,00,27,16.00
2009,06,03,00,28,15.90
2009,06,03,00,29,15.80
2009,06,03,00,30,15.80
2009,06,03,00,31,15.80
2009,06,03,00,32,15.70
2009,06,03,00,33,15.60
2009,06,03,00,34,15.50
2009,06,03,00,35,15.50
2009,06,03,00,36,15.40
2009,06,03,00,37,15.40
2009,06,03,00,38,15.30
2009,06,03,00,39,15.30
2009,06,03,00,40,15.30
2009,06,03,00,41,15.30
2009,06,03,00,42,15.30
2009,06,03,00,43,15.20
2009,06,03,00,44,15.20
2009,06,03,00,45,15.20
2009,06,03,00,46,15.20
2009,06,03,00,47,15.20
2009,06,03,00,48,15.10
2009,06,03,00,49,15.10
2009,06,03,00,50,15.10
2009,06,03,00,51,15.10
2009,06,03,00,52,15.10
2009,06,03,00,53,15.10
2009,06,03,00,54,15.10
2009,06,03,00,55,15.10
2009,06,03,00,56,15.10
2009,06,03,00,57,15.10
2009,06,03,00,58,15.10
2009,06,03,00,59,15.10
2009,06,03,01,00,15.10
2009,06,03,01,01,15.10
2009,06,03,01,02,15.10
2009,06,03,01,03,15.10
2009,06,03,01,04,15.10
2009,06,03,01,05,15.10
2009,06,03,01,06,15.10
2009,06,03,01,07,15.10
2009,06,03,01,08,15.10
2009,06,03,01,09,15.10
2009,06,03,01,10,15.10
2009,06,03,01,11,15.10
2009,06,03,01,12,15.10
2009,06,03,01,13,15.10
2009,06,03,01,14,15.10
2009,06,03,01,15,15.00
2009,06,03,01,16,15.00
2009,06,03,01,17,15.00
2009,06,03,01,18,15.00
2009,06,03,01,19,14.90
2009,06,03,01,20,14.90
2009,06,03,01,21,14.80
2009,06,03,01,22,14.80
2009,06,03,01,23,14.80
2009,06,03,01,24,14.80
2009,06,03,01,25,14.80
2009,06,03,01,26,14.70
2009,06,03,01,27,14.70
2009,06,03,01,28,14.70
2009,06,03,01,29,14.60
2009,06,03,01,30,14.60
2009,06,03,01,31,14.50
2009,06,03,01,32,14.50
2009,06,03,01,33,14.50
2009,06,03,01,34,14.40
2009,06,03,01,35,14.40
2009,06,03,01,36,14.40
2009,06,03,01,37,14.40
2009,06,03,01,38,14.40
2009,06,03,01,39,14.40
2009,06,03,01,40,14.30
2009,06,03,01,41,14.30
2009,06,03,01,42,14.30
2009,06,03,01,43,14.30
2009,06,03,01,44,14.30
2009,06,03,01,45,14.30
2009,06,03,01,46,14.30
2009,06,03,01,47,14.30
2009,06,03,01,48,14.30
2009,06,03,01,49,14.30
2009,06,03,01,50,14.20
2009,06,03,01,51,14.20
2009,06,03,01,52,14.20
2009,06,03,01,53,14.20
2009,06,03,01,54,14.20
2009,06,03,01,55,14.20
2009,06,03,01,56,14.20
2009,06,03,01,57,14.10
2009,06,03,01,58,14.10
2009,06,03,01,59,14.10
2009,06,03,02,00,14.10
2009,06,03,02,01,14.10
2009,06,03,02,02,14.10
2009,06,03,02,03,14.10
2009,06,03,02,04,14.10
2009,06,03,02,05,14.10
2009,06,03,02,06,14.10
2009,06,03,02,07,14.10
2009,06,03,02,08,14.10
2009,06,03,02,09,14.10
2009,06,03,02,10,14.10
2009,06,03,02,11,14.10
2009,06,03,02,12,14.10
2009,06,03,02,13,14.20
2009,06,03,02,14,14.20
2009,06,03,02,15,14.20
2009,06,03,02,16,14.20
2009,06,03,02,17,14.20
2009,06,03,02,18,14.20
2009,06,03,02,19,14.20
2009,06,03,02,20,14.20
2009,06,03,02,21,14.10
2009,06,03,02,22,14.10
2009,06,03,02,23,14.10
2009,06,03,02,24,14.00
2009,06,03,02,25,14.00
2009,06,03,02,26,14.00
2009,06,03,02,27,14.10
2009,06,03,02,28,14.10
2009,06,03,02,29,14.10
2009,06,03,02,30,14.10
2009,06,03,02,31,14.10
2009,06,03,02,32,14.10
2009,06,03,02,33,14.20
2009,06,03,02,34,14.20
2009,06,03,02,35,14.20
2009,06,03,02,36,14.20
2009,06,03,02,37,14.20
2009,06,03,02,38,14.20
2009,06,03,02,39,14.20
2009,06,03,02,40,14.20
2009,06,03,02,41,14.20
2009,06,03,02,42,14.20
2009,06,03,02,43,14.20
2009,06,03,02,44,14.20
2009,06,03,02,45,14.20
2009,06,03,02,46,14.20
2009,06,03,02,47,14.10
2009,06,03,02,48,14.10
2009,06,03,02,49,14.10
2009,06,03,02,50,14.10
2009,06,03,02,51,14.10
2009,06,03,02,52,14.10
2009,06,03,02,53,14.10
2009,06,03,02,54,14.10
2009,06,03,02,55,14.10
2009,06,03,02,56,14.20
2009,06,03,02,57,14.10
2009,06,03,02,58,14.10
2009,06,03,02,59,14.10
2009,06,03,03,00,14.10
2009,06,03,03,01,14.10
2009,06,03,03,02,14.10
2009,06,03,03,03,14.00
2009,06,03,03,04,14.00
2009,06,03,03,05,14.00
2009,06,03,03,06,13.90
2009,06,03,03,07,13.90
2009,06,03,03,08,13.80
2009,06,03,03,09,13.80
2009,06,03,03,10,13.70
2009,06,03,03,11,13.70
2009,06,03,03,12,13.70
2009,06,03,03,13,13.70
2009,06,03,03,14,13.60
2009,06,03,03,15,13.60
2009,06,03,03,16,13.50
2009,06,03,03,17,13.50
2009,06,03,03,18,13.50
2009,06,03,03,19,13.40
2009,06,03,03,20,13.40
2009,06,03,03,21,13.30
2009,06,03,03,22,13.30
2009,06,03,03,23,13.30
2009,06,03,03,24,13.30
2009,06,03,03,25,13.30
2009,06,03,03,26,13.30
2009,06,03,03,27,13.20
2009,06,03,03,28,13.20
2009,06,03,03,29,13.20
2009,06,03,03,30,13.20
2009,06,03,03,31,13.10
2009,06,03,03,32,13.10
2009,06,03,03,33,13.10
2009,06,03,03,34,13.00
2009,06,03,03,35,13.00
2009,06,03,03,36,13.00
2009,06,03,03,37,13.00
2009,06,03,03,38,13.00
2009,06,03,03,39,13.00
2009,06,03,03,40,13.00
2009,06,03,03,41,13.00
2009,06,03,03,42,13.00
2009,06,03,03,43,13.10
2009,06,03,03,44,13.10
2009,06,03,03,45,13.10
2009,06,03,03,46,13.10
2009,06,03,03,47,13.20
2009,06,03,03,48,13.20
2009,06,03,03,49,13.20
2009,06,03,03,50,13.30
2009,06,03,03,51,13.30
2009,06,03,03,52,13.30
2009,06,03,03,53,13.30
2009,06,03,03,54,13.30
2009,06,03,03,55,13.30
2009,06,03,03,56,13.30
2009,06,03,03,57,13.30
2009,06,03,03,58,13.30
2009,06,03,03,59,13.30
2009,06,03,04,00,13.30
2009,06,03,04,01,13.30
2009,06,03,04,02,13.30
2009,06,03,04,03,13.30
2009,06,03,04,04,13.30
2009,06,03,04,05,13.30
2009,06,03,04,06,13.30
2009,06,03,04,07,13.30
2009,06,03,04,08,13.30
2009,06,03,04,09,13.30
2009,06,03,04,10,13.20
2009,06,03,04,11,13.20
2009,06,03,04,12,13.20
2009,06,03,04,13,13.10
2009,06,03,04,14,13.10
2009,06,03,04,15,13.10
2009,06,03,04,16,13.00
2009,06,03,04,17,13.00
2009,06,03,04,18,13.00
2009,06,03,04,19,13.00
2009,06,03,04,20,12.90
2009,06,03,04,21,12.90
2009,06,03,04,22,12.80
2009,06,03,04,23,12.80
2009,06,03,04,24,12.80
2009,06,03,04,25,12.80
2009,06,03,04,26,12.80
2009,06,03,04,27,12.70
2009,06,03,04,28,12.70
2009,06,03,04,29,12.70
2009,06,03,04,30,12.70
2009,06,03,04,31,12.70
2009,06,03,04,32,12.70
2009,06,03,04,33,12.70
2009,06,03,04,34,12.60
2009,06,03,04,35,12.60
2009,06,03,04,36,12.60
2009,06,03,04,37,12.60
2009,06,03,04,38,12.50
2009,06,03,04,39,12.50
2009,06,03,04,40,12.50
2009,06,03,04,41,12.40
2009,06,03,04,42,12.40
2009,06,03,04,43,12.40
2009,06,03,04,44,12.40
2009,06,03,04,45,12.40
2009,06,03,04,46,12.40
2009,06,03,04,47,12.50
2009,06,03,04,48,12.50
2009,06,03,04,49,12.60
2009,06,03,04,50,12.70
2009,06,03,04,51,12.80
2009,06,03,04,52,12.80
2009,06,03,04,53,12.90
2009,06,03,04,54,12.90
2009,06,03,04,55,13.00
2009,06,03,04,56,13.00
2009,06,03,04,57,13.10
2009,06,03,04,58,13.10
2009,06,03,04,59,13.10
2009,06,03,05,00,13.10
2009,06,03,05,01,13.10
2009,06,03,05,02,13.00
2009,06,03,05,03,13.00
2009,06,03,05,04,13.00
2009,06,03,05,05,13.00
2009,06,03,05,06,12.90
2009,06,03,05,07,12.90
2009,06,03,05,08,12.90
2009,06,03,05,09,12.80
2009,06,03,05,10,12.80
2009,06,03,05,11,12.80
2009,06,03,05,12,12.80
2009,06,03,05,13,12.80
2009,06,03,05,14,12.80
2009,06,03,05,15,12.80
2009,06,03,05,16,12.80
2009,06,03,05,17,12.80
2009,06,03,05,18,12.80
2009,06,03,05,19,12.70
2009,06,03,05,20,12.70
2009,06,03,05,21,12.70
2009,06,03,05,22,12.60
2009,06,03,05,23,12.60
2009,06,03,05,24,12.50
2009,06,03,05,25,12.50
2009,06,03,05,26,12.60
2009,06,03,05,27,12.60
2009,06,03,05,28,12.80
2009,06,03,05,29,12.80
2009,06,03,05,30,13.00
2009,06,03,05,31,13.20
2009,06,03,05,32,13.40
2009,06,03,05,33,13.60
2009,06,03,05,34,13.80
2009,06,03,05,35,13.90
2009,06,03,05,36,14.10
2009,06,03,05,37,14.30
2009,06,03,05,38,14.50
2009,06,03,05,39,14.60
2009,06,03,05,40,14.70
2009,06,03,05,41,14.80
2009,06,03,05,42,14.80
2009,06,03,05,43,14.80
2009,06,03,05,44,14.80
2009,06,03,05,45,14.80
2009,06,03,05,46,14.70
2009,06,03,05,47,14.60
2009,06,03,05,48,14.50
2009,06,03,05,49,14.40
2009,06,03,05,50,14.40
2009,06,03,05,51,14.30
2009,06,03,05,52,14.30
2009,06,03,05,53,14.30
2009,06,03,05,54,14.30
2009,06,03,05,55,14.20
2009,06,03,05,56,14.30
2009,06,03,05,57,14.30
2009,06,03,05,58,14.40
2009,06,03,05,59,14.50
2009,06,03,06,00,14.50
2009,06,03,06,01,14.60
2009,06,03,06,02,14.60
2009,06,03,06,03,14.60
2009,06,03,06,04,14.60
2009,06,03,06,05,14.60
2009,06,03,06,06,14.60
2009,06,03,06,07,14.60
2009,06,03,06,08,14.60
2009,06,03,06,09,14.50
2009,06,03,06,10,14.50
2009,06,03,06,11,14.50
2009,06,03,06,12,14.60
2009,06,03,06,13,14.60
2009,06,03,06,14,14.60
2009,06,03,06,15,14.60
2009,06,03,06,16,14.60
2009,06,03,06,17,14.70
2009,06,03,06,18,14.80
2009,06,03,06,19,14.90
2009,06,03,06,20,14.90
2009,06,03,06,21,15.00
2009,06,03,06,22,15.00
2009,06,03,06,23,15.00
2009,06,03,06,24,15.10
2009,06,03,06,25,15.10
2009,06,03,06,26,15.10
2009,06,03,06,27,15.10
2009,06,03,06,28,15.10
2009,06,03,06,29,15.10
2009,06,03,06,30,15.10
2009,06,03,06,31,15.10
2009,06,03,06,32,15.10
2009,06,03,06,33,15.20
2009,06,03,06,34,15.20
2009,06,03,06,35,15.20
2009,06,03,06,36,15.20
2009,06,03,06,37,15.20
2009,06,03,06,38,15.20
2009,06,03,06,39,15.20
2009,06,03,06,40,15.20
2009,06,03,06,41,15.30
2009,06,03,06,42,15.30
2009,06,03,06,43,15.30
2009,06,03,06,44,15.30
2009,06,03,06,45,15.30
2009,06,03,06,46,15.30
2009,06,03,06,47,15.30
2009,06,03,06,48,15.40
2009,06,03,06,49,15.40
2009,06,03,06,50,15.50
2009,06,03,06,51,15.50
2009,06,03,06,52,15.60
2009,06,03,06,53,15.60
2009,06,03,06,54,15.70
2009,06,03,06,55,15.70
2009,06,03,06,56,15.80
2009,06,03,06,57,15.80
2009,06,03,06,58,15.90
2009,06,03,06,59,16.00
2009,06,03,07,00,16.10
2009,06,03,07,01,16.10
2009,06,03,07,02,16.20
2009,06,03,07,03,16.20
2009,06,03,07,04,16.20
2009,06,03,07,05,16.30
2009,06,03,07,06,16.40
2009,06,03,07,07,16.40
2009,06,03,07,08,16.40
2009,06,03,07,09,16.50
2009,06,03,07,10,16.60
2009,06,03,07,11,16.70
2009,06,03,07,12,16.70
2009,06,03,07,13,16.80
2009,06,03,07,14,16.90
2009,06,03,07,15,16.90
2009,06,03,07,16,17.00
2009,06,03,07,17,17.10
2009,06,03,07,18,17.20
2009,06,03,07,19,17.30
2009,06,03,07,20,17.50
2009,06,03,07,21,17.70
2009,06,03,07,22,17.80
2009,06,03,07,23,18.00
2009,06,03,07,24,18.20
2009,06,03,07,25,18.40
2009,06,03,07,26,18.50
2009,06,03,07,27,18.70
2009,06,03,07,28,18.80
2009,06,03,07,29,19.00
2009,06,03,07,30,19.10
2009,06,03,07,31,19.20
2009,06,03,07,32,19.30
2009,06,03,07,33,19.40
2009,06,03,07,34,19.50
2009,06,03,07,35,19.60
2009,06,03,07,36,19.70
2009,06,03,07,37,19.80
2009,06,03,07,38,19.90
2009,06,03,07,39,19.90
2009,06,03,07,40,20.00
2009,06,03,07,41,20.10
2009,06,03,07,42,20.20
2009,06,03,07,43,20.20
2009,06,03,07,44,20.30
2009,06,03,07,45,20.40
2009,06,03,07,46,20.50
2009,06,03,07,47,20.50
2009,06,03,07,48,20.60
2009,06,03,07,49,20.70
2009,06,03,07,50,20.70
2009,06,03,07,51,20.80
2009,06,03,07,52,20.80
2009,06,03,07,53,20.90
2009,06,03,07,54,21.00
2009,06,03,07,55,21.00
2009,06,03,07,56,21.10
2009,06,03,07,57,21.10
2009,06,03,07,58,21.10
2009,06,03,07,59,21.10
2009,06,03,08,00,21.20
2009,06,03,08,01,21.20
2009,06,03,08,02,21.20
2009,06,03,08,03,21.20
2009,06,03,08,04,21.30
2009,06,03,08,05,21.30
2009,06,03,08,06,21.30
2009,06,03,08,07,21.40
2009,06,03,08,08,21.40
2009,06,03,08,09,21.50
2009,06,03,08,10,21.60
2009,06,03,08,11,21.60
2009,06,03,08,12,21.60
2009,06,03,08,13,21.70
2009,06,03,08,14,21.80
2009,06,03,08,15,21.80
2009,06,03,08,16,21.90
2009,06,03,08,17,21.90
2009,06,03,08,18,22.00
2009,06,03,08,19,22.00
2009,06,03,08,20,22.10
2009,06,03,08,21,22.10
2009,06,03,08,22,22.20
2009,06,03,08,23,22.20
2009,06,03,08,24,22.30
2009,06,03,08,25,22.30
2009,06,03,08,26,22.30
2009,06,03,08,27,22.40
2009,06,03,08,28,22.40
2009,06,03,08,29,22.40
2009,06,03,08,30,22.50
2009,06,03,08,31,22.40
2009,06,03,08,32,22.40
2009,06,03,08,33,22.40
2009,06,03,08,34,22.50
2009,06,03,08,35,22.50
2009,06,03,08,36,22.50
2009,06,03,08,37,22.50
2009,06,03,08,38,22.60
2009,06,03,08,39,22.60
2009,06,03,08,40,22.60
2009,06,03,08,41,22.60
2009,06,03,08,42,22.60
2009,06,03,08,43,22.60
2009,06,03,08,44,22.60
2009,06,03,08,45,22.70
2009,06,03,08,46,22.70
2009,06,03,08,47,22.70
2009,06,03,08,48,22.70
2009,06,03,08,49,22.70
2009,06,03,08,50,22.70
2009,06,03,08,51,22.80
2009,06,03,08,52,22.80
2009,06,03,08,53,22.90
2009,06,03,08,54,22.90
2009,06,03,08,55,22.90
2009,06,03,08,56,23.00
2009,06,03,08,57,23.10
2009,06,03,08,58,23.10
2009,06,03,08,59,23.20
2009,06,03,09,00,23.20
2009,06,03,09,01,23.20
2009,06,03,09,02,23.20
2009,06,03,09,03,23.30
2009,06,03,09,04,23.30
2009,06,03,09,05,23.30
2009,06,03,09,06,23.30
2009,06,03,09,07,23.30
2009,06,03,09,08,23.40
2009,06,03,09,09,23.50
2009,06,03,09,10,23.60
2009,06,03,09,11,23.70
2009,06,03,09,12,23.70
2009,06,03,09,13,23.80
2009,06,03,09,14,23.90
2009,06,03,09,15,24.00
2009,06,03,09,16,24.00
2009,06,03,09,17,23.90
2009,06,03,09,18,23.90
2009,06,03,09,19,23.90
2009,06,03,09,20,24.00
2009,06,03,09,21,24.10
2009,06,03,09,22,24.10
2009,06,03,09,23,24.10
2009,06,03,09,24,24.20
2009,06,03,09,25,24.30
2009,06,03,09,26,24.30
2009,06,03,09,27,24.40
2009,06,03,09,28,24.40
2009,06,03,09,29,24.50
2009,06,03,09,30,24.50
2009,06,03,09,31,24.50
2009,06,03,09,32,24.50
2009,06,03,09,33,24.50
2009,06,03,09,34,24.40
2009,06,03,09,35,24.20
2009,06,03,09,36,24.20
2009,06,03,09,37,24.30
2009,06,03,09,38,24.30
2009,06,03,09,39,24.40
2009,06,03,09,40,24.40
2009,06,03,09,41,24.40
2009,06,03,09,42,24.30
2009,06,03,09,43,24.40
2009,06,03,09,44,24.40
2009,06,03,09,45,24.40
2009,06,03,09,46,24.30
2009,06,03,09,47,24.30
2009,06,03,09,48,24.30
2009,06,03,09,49,24.20
2009,06,03,09,50,24.10
2009,06,03,09,51,24.10
2009,06,03,09,52,24.10
2009,06,03,09,53,24.10
2009,06,03,09,54,24.10
2009,06,03,09,55,24.10
2009,06,03,09,56,24.10
2009,06,03,09,57,24.10
2009,06,03,09,58,24.20
2009,06,03,09,59,24.20
2009,06,03,10,00,24.20
2009,06,03,10,01,24.20
2009,06,03,10,02,24.20
2009,06,03,10,03,24.30
2009,06,03,10,04,24.30
2009,06,03,10,05,24.40
2009,06,03,10,06,24.50
2009,06,03,10,07,24.60
2009,06,03,10,08,24.60
2009,06,03,10,09,24.70
2009,06,03,10,10,24.70
2009,06,03,10,11,24.70
2009,06,03,10,12,24.80
2009,06,03,10,13,24.80
2009,06,03,10,14,24.90
2009,06,03,10,15,24.90
2009,06,03,10,16,24.90
2009,06,03,10,17,24.80
2009,06,03,10,18,24.80
2009,06,03,10,19,24.80
2009,06,03,10,20,24.80
2009,06,03,10,21,24.90
2009,06,03,10,22,24.90
2009,06,03,10,23,25.00
2009,06,03,10,24,25.00
2009,06,03,10,25,25.00
2009,06,03,10,26,25.10
2009,06,03,10,27,25.10
2009,06,03,10,28,25.00
2009,06,03,10,29,24.90
2009,06,03,10,30,24.90
2009,06,03,10,31,24.90
2009,06,03,10,32,24.90
2009,06,03,10,33,24.80
2009,06,03,10,34,24.80
2009,06,03,10,35,24.80
2009,06,03,10,36,24.80
2009,06,03,10,37,24.90
2009,06,03,10,38,24.80
2009,06,03,10,39,24.80
2009,06,03,10,40,24.80
2009,06,03,10,41,24.90
2009,06,03,10,42,24.90
2009,06,03,10,43,25.00
2009,06,03,10,44,25.10
2009,06,03,10,45,25.20
2009,06,03,10,46,25.30
2009,06,03,10,47,25.30
2009,06,03,10,48,25.40
2009,06,03,10,49,25.50
2009,06,03,10,50,25.50
2009,06,03,10,51,25.60
2009,06,03,10,52,25.60
2009,06,03,10,53,25.60
2009,06,03,10,54,25.70
2009,06,03,10,55,25.70
2009,06,03,10,56,25.70
2009,06,03,10,57,25.70
2009,06,03,10,58,25.70
2009,06,03,10,59,25.80
2009,06,03,11,00,25.80
2009,06,03,11,01,25.80
2009,06,03,11,02,25.80
2009,06,03,11,03,25.80
2009,06,03,11,04,25.90
2009,06,03,11,05,25.90
2009,06,03,11,06,26.10
2009,06,03,11,07,26.20
2009,06,03,11,08,26.30
2009,06,03,11,09,26.30
2009,06,03,11,10,26.40
2009,06,03,11,11,26.40
2009,06,03,11,12,26.50
2009,06,03,11,13,26.60
2009,06,03,11,14,26.70
2009,06,03,11,15,26.80
2009,06,03,11,16,26.90
2009,06,03,11,17,27.00
2009,06,03,11,18,27.10
2009,06,03,11,19,27.20
2009,06,03,11,20,27.00
2009,06,03,11,21,26.80
2009,06,03,11,22,26.70
2009,06,03,11,23,26.60
2009,06,03,11,24,26.60
2009,06,03,11,25,26.60
2009,06,03,11,26,26.60
2009,06,03,11,27,26.60
2009,06,03,11,28,26.60
2009,06,03,11,29,26.60
2009,06,03,11,30,26.50
2009,06,03,11,31,26.40
2009,06,03,11,32,26.40
2009,06,03,11,33,26.50
2009,06,03,11,34,26.60
2009,06,03,11,35,26.60
2009,06,03,11,36,26.60
2009,06,03,11,37,26.60
2009,06,03,11,38,26.40
2009,06,03,11,39,26.30
2009,06,03,11,40,26.30
2009,06,03,11,41,26.40
2009,06,03,11,42,26.50
2009,06,03,11,43,26.60
2009,06,03,11,44,26.70
2009,06,03,11,45,26.80
2009,06,03,11,46,26.80
2009,06,03,11,47,26.80
2009,06,03,11,48,26.80
2009,06,03,11,49,26.80
2009,06,03,11,50,26.80
2009,06,03,11,51,26.90
2009,06,03,11,52,26.90
2009,06,03,11,53,26.90
2009,06,03,11,54,26.90
2009,06,03,11,55,26.90
2009,06,03,11,56,26.90
2009,06,03,11,57,26.90
2009,06,03,11,58,26.80
2009,06,03,11,59,26.80
2009,06,03,12,00,26.90
2009,06,03,12,01,26.90
2009,06,03,12,02,26.90
2009,06,03,12,03,27.00
2009,06,03,12,04,27.10
2009,06,03,12,05,27.10
2009,06,03,12,06,27.10
2009,06,03,12,07,27.00
2009,06,03,12,08,26.90
2009,06,03,12,09,26.90
2009,06,03,12,10,26.90
2009,06,03,12,11,27.00
2009,06,03,12,12,27.10
2009,06,03,12,13,27.20
2009,06,03,12,14,27.20
2009,06,03,12,15,27.20
2009,06,03,12,16,27.20
2009,06,03,12,17,27.20
2009,06,03,12,18,27.10
2009,06,03,12,19,27.10
2009,06,03,12,20,27.00
2009,06,03,12,21,26.90
2009,06,03,12,22,26.80
2009,06,03,12,23,26.90
2009,06,03,12,24,26.90
2009,06,03,12,25,27.00
2009,06,03,12,26,27.10
2009,06,03,12,27,27.10
2009,06,03,12,28,27.10
2009,06,03,12,29,27.10
2009,06,03,12,30,27.00
2009,06,03,12,31,26.90
2009,06,03,12,32,26.90
2009,06,03,12,33,26.80
2009,06,03,12,34,26.80
2009,06,03,12,35,26.80
2009,06,03,12,36,26.80
2009,06,03,12,37,26.80
2009,06,03,12,38,26.80
2009,06,03,12,39,26.80
2009,06,03,12,40,26.80
2009,06,03,12,41,26.80
2009,06,03,12,42,26.80
2009,06,03,12,43,26.90
2009,06,03,12,44,27.00
2009,06,03,12,45,27.20
2009,06,03,12,46,27.20
2009,06,03,12,47,27.30
2009,06,03,12,48,27.30
2009,06,03,12,49,27.30
2009,06,03,12,50,27.30
2009,06,03,12,51,27.30
2009,06,03,12,52,27.30
2009,06,03,12,53,27.30
2009,06,03,12,54,27.30
2009,06,03,12,55,27.30
2009,06,03,12,56,27.30
2009,06,03,12,57,27.30
2009,06,03,12,58,27.30
2009,06,03,12,59,27.30
2009,06,03,13,00,27.30
2009,06,03,13,01,27.30
2009,06,03,13,02,27.30
2009,06,03,13,03,27.40
2009,06,03,13,04,27.40
2009,06,03,13,05,27.50
2009,06,03,13,06,27.60
2009,06,03,13,07,27.70
2009,06,03,13,08,27.60
2009,06,03,13,09,27.60
2009,06,03,13,10,27.60
2009,06,03,13,11,27.40
2009,06,03,13,12,27.40
2009,06,03,13,13,27.40
2009,06,03,13,14,27.50
2009,06,03,13,15,27.60
2009,06,03,13,16,27.80
2009,06,03,13,17,27.90
2009,06,03,13,18,28.00
2009,06,03,13,19,28.10
2009,06,03,13,20,28.00
2009,06,03,13,21,27.90
2009,06,03,13,22,27.80
2009,06,03,13,23,27.70
2009,06,03,13,24,27.50
2009,06,03,13,25,27.40
2009,06,03,13,26,27.40
2009,06,03,13,27,27.40
2009,06,03,13,28,27.30
2009,06,03,13,29,27.20
2009,06,03,13,30,27.10
2009,06,03,13,31,27.10
2009,06,03,13,32,27.10
2009,06,03,13,33,27.00
2009,06,03,13,34,26.90
2009,06,03,13,35,26.80
2009,06,03,13,36,26.80
2009,06,03,13,37,26.70
2009,06,03,13,38,26.70
2009,06,03,13,39,26.80
2009,06,03,13,40,26.70
2009,06,03,13,41,26.60
2009,06,03,13,42,26.60
2009,06,03,13,43,26.60
2009,06,03,13,44,26.50
2009,06,03,13,45,26.40
2009,06,03,13,46,26.40
2009,06,03,13,47,26.60
2009,06,03,13,48,26.60
2009,06,03,13,49,26.70
2009,06,03,13,50,26.80
2009,06,03,13,51,26.80
2009,06,03,13,52,26.80
2009,06,03,13,53,26.80
2009,06,03,13,54,26.60
2009,06,03,13,55,26.40
2009,06,03,13,56,26.40
2009,06,03,13,57,26.50
2009,06,03,13,58,26.60
2009,06,03,13,59,26.70
2009,06,03,14,00,26.80
2009,06,03,14,01,26.80
2009,06,03,14,02,26.70
2009,06,03,14,03,26.50
2009,06,03,14,04,26.30
2009,06,03,14,05,26.10
2009,06,03,14,06,25.90
2009,06,03,14,07,25.80
2009,06,03,14,08,25.80
2009,06,03,14,09,25.90
2009,06,03,14,10,26.00
2009,06,03,14,11,26.10
2009,06,03,14,12,26.10
2009,06,03,14,13,26.20
2009,06,03,14,14,26.20
2009,06,03,14,15,26.20
2009,06,03,14,16,26.10
2009,06,03,14,17,26.00
2009,06,03,14,18,26.00
2009,06,03,14,19,25.90
2009,06,03,14,20,25.70
2009,06,03,14,21,25.70
2009,06,03,14,22,25.60
2009,06,03,14,23,25.50
2009,06,03,14,24,25.50
2009,06,03,14,25,25.50
2009,06,03,14,26,25.60
2009,06,03,14,27,25.70
2009,06,03,14,28,25.80
2009,06,03,14,29,25.80
2009,06,03,14,30,25.90
2009,06,03,14,31,26.00
2009,06,03,14,32,26.10
2009,06,03,14,33,26.20
2009,06,03,14,34,26.30
2009,06,03,14,35,26.50
2009,06,03,14,36,26.60
2009,06,03,14,37,26.60
2009,06,03,14,38,26.70
2009,06,03,14,39,26.80
2009,06,03,14,40,26.90
2009,06,03,14,41,26.90
2009,06,03,14,42,27.10
2009,06,03,14,43,27.20
2009,06,03,14,44,27.30
2009,06,03,14,45,27.30
2009,06,03,14,46,27.30
2009,06,03,14,47,27.40
2009,06,03,14,48,27.50
2009,06,03,14,49,27.60
2009,06,03,14,50,27.70
2009,06,03,14,51,27.90
2009,06,03,14,52,28.00
2009,06,03,14,53,28.00
2009,06,03,14,54,28.00
2009,06,03,14,55,28.10
2009,06,03,14,56,28.20
2009,06,03,14,57,28.20
2009,06,03,14,58,28.30
2009,06,03,14,59,28.30
2009,06,03,15,00,28.50
2009,06,03,15,01,28.60
2009,06,03,15,02,28.70
2009,06,03,15,03,28.80
2009,06,03,15,04,28.90
2009,06,03,15,05,28.90
2009,06,03,15,06,28.90
2009,06,03,15,07,28.90
2009,06,03,15,08,28.90
2009,06,03,15,09,28.90
2009,06,03,15,10,29.00
2009,06,03,15,11,29.10
2009,06,03,15,12,29.10
2009,06,03,15,13,29.20
2009,06,03,15,14,29.30
2009,06,03,15,15,29.40
2009,06,03,15,16,29.40
2009,06,03,15,17,29.50
2009,06,03,15,18,29.60
2009,06,03,15,19,29.80
2009,06,03,15,20,30.00
2009,06,03,15,21,30.10
2009,06,03,15,22,30.30
2009,06,03,15,23,30.30
2009,06,03,15,24,30.40
2009,06,03,15,25,30.30
2009,06,03,15,26,30.20
2009,06,03,15,27,30.00
2009,06,03,15,28,29.90
2009,06,03,15,29,29.80
2009,06,03,15,30,29.70
2009,06,03,15,31,29.60
2009,06,03,15,32,29.30
2009,06,03,15,33,28.90
2009,06,03,15,34,28.30
2009,06,03,15,35,27.90
2009,06,03,15,36,27.50
2009,06,03,15,37,27.10
2009,06,03,15,38,26.70
2009,06,03,15,39,26.30
2009,06,03,15,40,25.80
2009,06,03,15,41,25.50
2009,06,03,15,42,25.20
2009,06,03,15,43,25.00
2009,06,03,15,44,24.80
2009,06,03,15,45,24.60
2009,06,03,15,46,24.40
2009,06,03,15,47,24.40
2009,06,03,15,48,24.50
2009,06,03,15,49,24.50
2009,06,03,15,50,24.60
2009,06,03,15,51,24.60
2009,06,03,15,52,24.70
2009,06,03,15,53,24.90
2009,06,03,15,54,24.90
2009,06,03,15,55,24.80
2009,06,03,15,56,24.60
2009,06,03,15,57,24.50
2009,06,03,15,58,24.40
2009,06,03,15,59,24.40
2009,06,03,16,00,24.30
2009,06,03,16,01,24.30
2009,06,03,16,02,24.30
2009,06,03,16,03,24.30
2009,06,03,16,04,24.40
2009,06,03,16,05,24.50
2009,06,03,16,06,24.70
2009,06,03,16,07,24.90
2009,06,03,16,08,24.90
2009,06,03,16,09,25.10
2009,06,03,16,10,25.30
2009,06,03,16,11,25.50
2009,06,03,16,12,25.80
2009,06,03,16,13,26.00
2009,06,03,16,14,26.20
2009,06,03,16,15,26.40
2009,06,03,16,16,26.60
2009,06,03,16,17,26.70
2009,06,03,16,18,26.90
2009,06,03,16,19,27.10
2009,06,03,16,20,27.20
2009,06,03,16,21,27.30
2009,06,03,16,22,27.50
2009,06,03,16,23,27.60
2009,06,03,16,24,27.60
2009,06,03,16,25,27.60
2009,06,03,16,26,27.70
2009,06,03,16,27,27.80
2009,06,03,16,28,27.90
2009,06,03,16,29,28.10
2009,06,03,16,30,28.20
2009,06,03,16,31,28.40
2009,06,03,16,32,28.50
2009,06,03,16,33,28.60
2009,06,03,16,34,28.70
2009,06,03,16,35,28.80
2009,06,03,16,36,28.80
2009,06,03,16,37,28.90
2009,06,03,16,38,29.00
2009,06,03,16,39,29.10
2009,06,03,16,40,29.20
2009,06,03,16,41,29.30
2009,06,03,16,42,29.40
2009,06,03,16,43,29.50
2009,06,03,16,44,29.70
2009,06,03,16,45,29.80
2009,06,03,16,46,29.80
2009,06,03,16,47,29.90
2009,06,03,16,48,30.00
2009,06,03,16,49,30.10
2009,06,03,16,50,30.20
2009,06,03,16,51,30.20
2009,06,03,16,52,30.30
2009,06,03,16,53,30.30
2009,06,03,16,54,30.40
2009,06,03,16,55,30.50
2009,06,03,16,56,30.60
2009,06,03,16,57,30.70
2009,06,03,16,58,30.80
2009,06,03,16,59,30.90
2009,06,03,17,00,30.90
2009,06,03,17,01,31.00
2009,06,03,17,02,31.10
2009,06,03,17,03,31.00
2009,06,03,17,04,31.00
2009,06,03,17,05,30.80
2009,06,03,17,06,30.80
2009,06,03,17,07,30.80
2009,06,03,17,08,30.80
2009,06,03,17,09,30.80
2009,06,03,17,10,30.80
2009,06,03,17,11,30.80
2009,06,03,17,12,30.80
2009,06,03,17,13,30.70
2009,06,03,17,14,30.70
2009,06,03,17,15,30.70
2009,06,03,17,16,30.80
2009,06,03,17,17,30.80
2009,06,03,17,18,30.80
2009,06,03,17,19,30.90